Weather observations for the past three days for
Jaffrey Airport-Silver Ranch
Imperial (Metric)
Date Time (edt) Wind (mph) Vis. (mi.) Weather Sky Cond. Temperature (ºF) Relative Humidity Wind Chill (°F) Heat Index (°F) Pressure Precipitation (in)
Air Dwpt 6 hour altimeter (in) sea level (mb) 1 hr 3 hr 6 hr
Max. Min.
12 18:52 S 7 10.00 Fair CLR 84 69.1 61% 88 30.18 1021.7
12 17:52 Vrbl 6 10.00 Overcast SCT041 OVC050 84 68 59% 87 30.17 1021.5
12 16:52 SW 8 G 18 10.00 A Few Clouds FEW034 FEW043 86 68 55% 89 30.17 1021.4
12 15:52 S 8 10.00 A Few Clouds FEW034 87.1 68 53% 91 30.17 1021.5
12 14:52 S 9 10.00 Partly Cloudy FEW034 SCT042 SCT055 87.1 68 53% 91 30.18 1021.7
12 13:52 Vrbl 5 10.00 Mostly Cloudy FEW035 BKN050 84.9 66.9 87.1 73.9 55% 88 30.18 1021.8
12 12:52 SW 9 10.00 Mostly Cloudy SCT034 SCT041 BKN060 86 66.9 53% 89 30.19 1022.2
12 11:52 S 8 G 17 10.00 Mostly Cloudy BKN033 BKN043 82.9 66 57% 85 30.19 1022.1
12 10:52 S 8 10.00 Partly Cloudy FEW027 SCT040 82 66.9 60% 85 30.18 1021.7
12 09:52 Vrbl 6 10.00 Partly Cloudy SCT025 SCT030 81 66.9 62% 83 30.19 1022.0
12 08:52 Vrbl 7 10.00 Fair CLR 77 66.9 71% 79 30.19 1022.2
12 07:52 S 7 10.00 Fair CLR 73.9 66 73.9 66 76% 30.18 1021.7
12 06:52 Calm 10.00 A Few Clouds FEW040 71.1 66 84% 30.17 1021.3
12 05:52 Calm 10.00 Fair CLR 66 63 90% 30.15 1020.7
12 04:52 Calm 10.00 Fair CLR 66.9 64 91% 30.13 1020.0
12 03:52 Calm 10.00 Fair CLR 68 64.9 90% 30.11 1019.5
12 02:52 S 3 10.00 Fair CLR 69.1 64.9 87% 30.1 1019.1
12 01:52 S 3 10.00 Fair CLR 70 64.9 81 70 84% 30.1 1019.0
12 00:52 Calm 10.00 Fair CLR 71.1 66 84% 30.1 1018.9
11 23:52 SW 5 10.00 Fair CLR 73.9 66 76% 30.09 1018.7
11 22:52 S 5 10.00 Fair CLR 75 66.9 76% 76 30.08 1018.2
11 21:52 S 6 10.00 Fair CLR 77 66 69% 79 30.06 1017.6
11 20:52 SW 3 10.00 Fair CLR 79 66 65% 81 30.04 1016.9
11 19:52 Vrbl 5 10.00 Mostly Cloudy BKN065 81 66 89.1 81 61% 83 30.02 1016.2
11 18:52 SW 7 G 17 10.00 Partly Cloudy SCT065 84 64.9 53% 86 29.99 1015.3
11 17:52 SW 10 G 22 10.00 Mostly Cloudy BKN065 86 64 48% 87 29.97 1014.6
11 15:52 S 13 G 20 10.00 Partly Cloudy FEW047 SCT060 88 66 48% 90 29.94 1013.3
11 14:52 SW 12 G 31 10.00 A Few Clouds FEW050 88 66 48% 90 29.92 1012.9
11 13:52 SW 14 G 26 10.00 A Few Clouds FEW044 88 66.9 89.1 77 50% 91 29.91 1012.4
11 12:52 SW 12 G 25 10.00 Mostly Cloudy FEW030 SCT041 BKN049 87.1 69.1 55% 91 29.91 1012.3
11 11:52 S 9 G 23 10.00 Mostly Cloudy SCT024 BKN032 BKN038 84.9 70 61% 89 29.9 1012.1
11 10:52 S 10 G 22 10.00 Overcast SCT017 BKN023 OVC032 82 70 67% 86 29.9 1012.1
11 09:52 S 9 G 17 10.00 Overcast OVC017 80.1 71.1 74% 84 29.89 1011.9
11 08:52 Vrbl 5 10.00 Overcast OVC012 78.1 72 82% 80 29.88 1011.4
11 07:52 Vrbl 7 10.00 Overcast BKN011 BKN015 OVC080 77 72 77 75.9 85% 78 29.87 1010.9
11 06:52 S 9 10.00 Overcast OVC012 77 72 85% 78 29.84 1010.2
11 05:52 S 8 10.00 Overcast BKN011 BKN018 OVC090 77 72 85% 78 29.83 1009.6
11 04:52 S 12 G 21 10.00 Overcast OVC009 77 71.1 82% 79 29.82 1009.5
11 03:52 S 9 10.00 Overcast OVC011 77 71.1 82% 79 29.82 1009.1
11 02:52 S 12 G 22 10.00 Overcast OVC013 77 70 79% 79 29.81 1009.0
11 01:52 S 12 G 29 10.00 Overcast OVC018 78.1 69.1 81 75.9 74% 80 29.83 1009.5
11 00:52 S 20 G 30 10.00 Overcast OVC020 75.9 68 77% 77 29.82 1009.4
10 23:52 S 15 G 29 10.00 Overcast OVC022 78.1 68 71% 80 29.84 1010.1
10 22:52 S 13 G 25 10.00 A Few Clouds FEW025 78.1 68 71% 80 29.84 1010.0
10 21:52 S 12 G 28 10.00 Partly Cloudy SCT026 78.1 69.1 74% 80 29.85 1010.6
10 20:52 S 14 G 26 10.00 A Few Clouds FEW025 79 69.1 72% 82 29.82 1009.3
10 19:52 S 8 G 22 10.00 Partly Cloudy SCT028 81 69.1 91 81 67% 84 29.83 1009.8
10 18:52 S 14 G 23 10.00 A Few Clouds FEW037 82.9 70 65% 87 29.84 1009.9
10 17:52 S 14 G 28 10.00 A Few Clouds FEW034 87.1 70 57% 92 29.83 1009.6
10 16:52 S 15 G 26 10.00 Partly Cloudy FEW035 SCT048 87.1 71.1 59% 93 29.83 1009.7
10 15:52 S 13 G 23 10.00 Partly Cloudy FEW037 SCT050 89.1 71.1 55% 95 29.85 1010.4
10 14:52 S 12 G 20 10.00 Partly Cloudy SCT034 SCT044 89.1 73 59% 97 29.86 1010.9
10 13:52 SW 12 G 23 10.00 Partly Cloudy FEW028 SCT038 89.1 73.9 90 75 61% 98 29.89 1011.7
10 12:52 SW 13 G 21 10.00 Mostly Cloudy SCT023 BKN030 BKN035 87.1 73.9 65% 95 29.91 1012.4
10 11:52 S 10 G 18 10.00 Mostly Cloudy BKN021 86 73.9 67% 94 29.92 1012.8
10 10:52 S 9 10.00 A Few Clouds FEW014 84 73 70% 90 29.93 1013.1
10 09:52 SW 6 10.00 Fair CLR 82 73 74% 87 29.94 1013.3
10 08:52 S 3 10.00 Partly Cloudy SCT006 79 73 82% 82 29.94 1013.6
10 07:52 Calm 2.50 Fog/Mist OVC002 75 72 75 72 90% 74 29.95 1013.8
10 06:52 S 3 1.00 Fog/Mist OVC003 73.9 72 94% 29.94 1013.6
10 05:52 Calm 6.00 Fog/Mist OVC006 73 70 90% 29.95 1013.7
10 04:52 Calm 8.00 Fair CLR 72 69.1 91% 29.94 1013.6
10 03:52 Calm 8.00 Overcast OVC004 73.9 71.1 91% 29.94 1013.4
10 02:52 Calm 10.00 Fair CLR 73 70 90% 29.94 1013.4
10 01:52 S 3 10.00 Fair CLR 73.9 70 80.1 73.9 88% 29.95 1013.8
10 00:52 S 3 10.00 Fair CLR 73.9 70 88% 29.96 1014.0
09 23:52 S 3 10.00 Fair CLR 73.9 70 88% 29.96 1014.1
09 22:52 SW 3 10.00 Fair CLR 75 69.1 82% 75 29.96 1014.2
09 21:52 S 7 10.00 Fair CLR 75.9 69.1 79% 77 29.96 1014.3
09 20:52 S 8 G 20 10.00 Mostly Cloudy BKN110 75.9 69.1 79% 77 29.96 1014.0
Date Time (edt) Wind (mph) Vis. (mi.) Weather Sky Cond. Air Dwpt Max. Min. Relative Humidity Wind Chill (°F) Heat Index (°F) altimeter (in) sea level (mb) 1 hr 3 hr 6 hr
6 hour
Temperature (ºF) Pressure Precipitation (in)